Location: Unspecified
(0.0000°N, 0.0000°E)
Time: 21:09:58
(UTC+00:00)

STARLINK-1062 - Pass Details

Date: 22 January 2020
Orbit: 548 x 551 km, 53.0° (Epoch: 29 September)

Event Time Altitude Azimuth Distance (km) Brightness Sun altitude
Rises 05:06:29 0° 223° (SW) 2,718 6.9 -15.2°
Reaches altitude 10° 05:08:46 10° 228° (SW) 1,820 6.0 -14.7°
Maximum altitude 05:12:46 49° 304° (WNW) 707 3.7 -13.8°
Drops below altitude 10° 05:16:45 10° 19° (NNE) 1,807 6.2 -12.8°
Sets 05:19:01 0° 25° (NNE) 2,696 7.2 -12.3°
